Location: Appeville
(49.3218°N, 1.3427°W)
Time: 01:41:03
(UTC+00:00)

Cosmos 1954 Rocket - Pass Details

Date: 08 December 2019
Orbit: 751 x 782 km, 74.0° (Epoch: 28 January)

Event Time Altitude Azimuth Distance (km) Brightness Sun altitude
Exits shadow 05:29:21 36° 326° (NW) 1,202 4.6 -21.4°
Maximum altitude 05:31:30 73° 250° (WSW) 810 3.9 -21.1°
Drops below altitude 10° 05:36:45 10° 166° (SSE) 2,320 6.8 -20.2°
Sets 05:39:08 0° 165° (SSE) 3,247 7.6 -19.8°
